Location: Lake Arresoe
(56.0000°N, 12.5000°E)
Time: 15:11:13
(UTC+02:00)

Resurs 1-4 Rocket - Pass Details

Date: 28 July 2021
Orbit: 799 x 814 km, 98.6° (Epoch: 27 September)

Event Time Altitude Azimuth Distance (km) Brightness Sun altitude
Rises 04:13:11 0° 13° (NNE) 3,353 6.6 -6.3°
Reaches altitude 10° 04:15:41 10° 5° (N) 2,415 5.5 -6.1°
Maximum altitude 04:20:29 35° 301° (WNW) 1,290 3.1 -5.6°
Drops below altitude 10° 04:25:14 10° 238° (WSW) 2,394 3.9 -5.2°
Enters shadow 04:26:15 - 233° (SW) 2,760 4.2 -5.1°
